Location: Newark
(48.6461°N, 4.3644°W)
Time: 01:42:53
(UTC+00:00)

deb Explorer IX - All Passes

Search period start: 23 January 2020 00:00
Search period end: 02 February 2020 00:00
Orbit: 548 x 1101 km, 38.8° (Epoch: 22 January)

Date Brightness Start Highest point End Pass type
(mag) Time Alt. Az. Time Alt. Az. Time Alt. Az.
23 Jan - 00:03:16 10° SW 00:09:41 34° SSE 00:15:56 10° ESE night (unlit)
23 Jan - 01:49:50 10° WSW 01:56:20 36° S 02:02:23 10° ESE night (unlit)
23 Jan - 03:37:25 10° WSW 03:42:39 23° SSW 03:47:30 10° SSE visible
23 Jan - 21:56:00 10° SSW 22:00:54 20° SSE 22:05:53 10° ESE night (unlit)
23 Jan - 23:40:49 10° SW 23:47:14 35° SSE 23:53:33 10° ESE night (unlit)
24 Jan - 01:27:21 10° WSW 01:33:53 36° S 01:40:04 10° ESE night (unlit)
24 Jan - 03:14:53 10° WSW 03:20:13 23° SSW 03:25:13 10° SSE night (unlit)
24 Jan - 21:33:34 10° SSW 21:38:27 20° SSE 21:43:27 10° ESE night (unlit)
24 Jan - 23:18:22 10° SW 23:24:46 35° SSE 23:31:10 10° ESE night (unlit)
25 Jan - 01:04:52 10° WSW 01:11:25 37° S 01:17:43 10° ESE night (unlit)
25 Jan - 02:52:23 10° WSW 02:57:48 23° SSW 03:02:54 10° SSE night (unlit)
25 Jan - 21:11:10 10° SSW 21:15:59 20° SSE 21:20:58 10° ESE visible
25 Jan - 22:55:56 10° SW 23:02:17 35° SSE 23:08:44 10° ESE night (unlit)
26 Jan - 00:42:23 10° WSW 00:48:57 37° S 00:55:19 10° ESE night (unlit)
26 Jan - 02:29:52 10° WSW 02:35:21 23° SSW 02:40:33 10° SSE night (unlit)
26 Jan - 20:48:46 10° SSW 20:53:31 20° SSE 20:58:29 10° ESE visible
26 Jan - 22:33:31 10° SW 22:39:49 35° SSE 22:46:16 10° ESE night (unlit)
27 Jan - 00:19:56 10° WSW 00:26:28 37° S 00:32:55 10° ESE night (unlit)
27 Jan - 02:07:22 10° WSW 02:12:53 24° SSW 02:18:10 10° SSE night (unlit)
27 Jan - 20:26:24 10° SSW 20:31:03 20° SSE 20:35:58 10° ESE visible
27 Jan - 22:11:06 10° SW 22:17:20 35° SSE 22:23:47 10° ESE night (unlit)
27 Jan - 23:57:29 10° WSW 00:03:58 37° S 00:10:28 10° SE night (unlit)
28 Jan - 01:44:52 10° WSW 01:50:24 24° SSW 01:55:46 10° SSE night (unlit)
28 Jan - 20:04:03 10° SSW 20:08:36 20° SSE 20:13:26 10° ESE visible
28 Jan - 21:48:42 10° SW 21:54:50 35° SSE 22:01:17 10° ESE visible
28 Jan - 23:35:02 10° WSW 23:41:28 37° S 23:48:00 10° SE night (unlit)
29 Jan - 01:22:24 10° WSW 01:27:55 24° SSW 01:33:19 10° SSE night (unlit)
29 Jan - 19:41:43 10° SSW 19:46:08 19° SSE 19:50:51 10° ESE visible
29 Jan - 21:26:20 10° SW 21:32:20 34° SSE 21:38:45 10° ESE visible
29 Jan - 23:12:37 10° WSW 23:18:58 36° S 23:25:30 10° SE night (unlit)
30 Jan - 00:59:56 10° WSW 01:05:24 23° SSW 01:10:51 10° SSE night (unlit)
30 Jan - 19:19:23 10° SSW 19:23:40 19° SSE 19:28:17 10° ESE visible
30 Jan - 21:03:57 10° SW 21:09:51 34° SSE 21:16:12 10° ESE visible
30 Jan - 22:50:12 10° WSW 22:56:27 36° S 23:02:59 10° SE night (unlit)
31 Jan - 00:37:28 10° WSW 00:42:54 23° SSW 00:48:21 10° SSE night (unlit)
31 Jan - 18:57:04 10° SSW 19:01:13 19° SSE 19:05:41 10° ESE visible
31 Jan - 20:41:37 10° SW 20:47:21 34° SSE 20:53:38 10° ESE visible
31 Jan - 22:27:48 10° WSW 22:33:56 36° S 22:40:27 10° SE visible
01 Feb - 00:15:02 10° WSW 00:20:23 23° SSW 00:25:49 10° SSE night (unlit)
01 Feb - 18:34:47 10° SSW 18:38:46 18° SSE 18:43:05 10° ESE visible
01 Feb - 20:19:16 10° SW 20:24:52 33° SSE 20:31:03 10° ESE visible
01 Feb - 22:05:24 10° WSW 22:11:26 35° S 22:17:52 10° SE visible
